When you browse on this site, cookies collect data to enhance your experience and personalize the content and advertising you see.
Visit our Privacy Policy to learn more. By continuing to use the site, you agree to this use of cookies and data.
  • In Romania
  • List of Countries
  • For 7 days
  • Water Temperature
  • Satellite Maps
  • Weather Map
  • Weather Widgets
  • user-avatar
    Login

    Hourly Weather Dubovyy Gay

    Today, 25 March, Monday

    Time Temperature Precipitation Wind Pressure Humidity
    00:00 -3°C° 0.4 mm 6 mps 742 mmHg 94%
    01:00 -2°C° 1.5 mm 6 mps 740 mmHg 95%
    02:00 -1°C° 1.5 mm 5 mps 739 mmHg 96%
    03:00 0°C° 1.5 mm 5 mps 738 mmHg 97%
    04:00 -1°C° 0.5 mm 5 mps 737 mmHg 95%
    05:00 -1°C° 0.5 mm 5 mps 736 mmHg 94%
    06:00 -2°C° 0.5 mm 5 mps 735 mmHg 92%
    07:00 -3°C° 0.1 mm 6 mps 735 mmHg 91%
    08:00 -3°C° 0.1 mm 6 mps 735 mmHg 91%
    09:00 -3°C° 0.1 mm 6 mps 735 mmHg 90%
    10:00 -2°C° 0.2 mm 7 mps 736 mmHg 89%
    11:00 -2°C° 0.2 mm 8 mps 736 mmHg 88%
    12:00 -2°C° 0.2 mm 8 mps 736 mmHg 87%
    13:00 -2°C° 0.2 mm 8 mps 737 mmHg 86%
    14:00 -2°C° 0.2 mm 8 mps 738 mmHg 85%
    15:00 -2°C° 0.2 mm 8 mps 738 mmHg 84%
    16:00 -2°C° 0.1 mm 7 mps 739 mmHg 85%
    17:00 -2°C° 0.1 mm 6 mps 740 mmHg 86%
    18:00 -3°C° 0.1 mm 6 mps 741 mmHg 86%
    19:00 -3°C° 0.1 mm 6 mps 741 mmHg 86%
    20:00 -2°C° 0.1 mm 5 mps 742 mmHg 85%
    21:00 -2°C° 0.1 mm 5 mps 743 mmHg 84%
    22:00 -2°C° 0 mm 5 mps 743 mmHg 86%
    23:00 -4°C° 0 mm 6 mps 744 mmHg 87%

    Tomorrow, 26 March, Tuesday

    Time Temperature Precipitation Wind Pressure Humidity
    00:00 -4°C° 0 mm 6 mps 745 mmHg 88%
    01:00 -4°C° 0 mm 5 mps 745 mmHg 88%
    02:00 -5°C° 0 mm 5 mps 746 mmHg 88%
    03:00 -4°C° 0 mm 4 mps 747 mmHg 88%
    04:00 -4°C° 0 mm 4 mps 747 mmHg 89%
    05:00 -5°C° 0 mm 4 mps 748 mmHg 90%
    06:00 -5°C° 0 mm 4 mps 749 mmHg 90%
    07:00 -4°C° 0 mm 4 mps 749 mmHg 89%
    08:00 -3°C° 0 mm 4 mps 749 mmHg 87%
    09:00 -2°C° 0 mm 4 mps 750 mmHg 85%
    10:00 -2°C° 0 mm 4 mps 750 mmHg 84%
    11:00 -1°C° 0 mm 4 mps 750 mmHg 83%
    12:00 -1°C° 0 mm 4 mps 751 mmHg 81%
    13:00 -1°C° 0 mm 4 mps 751 mmHg 81%
    14:00 -1°C° 0 mm 4 mps 750 mmHg 80%
    15:00 -1°C° 0 mm 4 mps 750 mmHg 80%
    16:00 -1°C° 0 mm 4 mps 750 mmHg 82%
    17:00 -2°C° 0 mm 4 mps 750 mmHg 84%
    18:00 -3°C° 0 mm 4 mps 750 mmHg 86%
    19:00 -2°C° 0.1 mm 5 mps 749 mmHg 85%
    20:00 -2°C° 0.1 mm 5 mps 749 mmHg 84%
    21:00 -3°C° 0.1 mm 6 mps 749 mmHg 83%
    22:00 -2°C° 0.5 mm 6 mps 748 mmHg 83%
    23:00 -2°C° 0.5 mm 7 mps 748 mmHg 84%

    Day after tomorrow, 27 March, Wednesday

    Time Temperature Precipitation Wind Pressure Humidity
    00:00 -1°C° 0.5 mm 7 mps 747 mmHg 84%
    01:00 -1°C° 0.8 mm 7 mps 747 mmHg 83%
    02:00 -1°C° 0.8 mm 8 mps 747 mmHg 83%
    03:00 0°C° 0.8 mm 8 mps 747 mmHg 82%
    04:00 0°C° 0.7 mm 8 mps 747 mmHg 83%
    05:00 -1°C° 0.7 mm 7 mps 746 mmHg 84%
    06:00 -1°C° 0.7 mm 7 mps 746 mmHg 86%
    07:00 -1°C° 1 mm 7 mps 747 mmHg 86%
    08:00 -1°C° 1 mm 7 mps 747 mmHg 86%
    09:00 -1°C° 1 mm 7 mps 747 mmHg 87%
    10:00 -1°C° 1 mm 7 mps 747 mmHg 88%
    11:00 -2°C° 1 mm 7 mps 747 mmHg 90%
    12:00 -2°C° 1 mm 7 mps 747 mmHg 91%
    13:00 -2°C° 0.6 mm 6 mps 748 mmHg 93%
    14:00 -1°C° 0.6 mm 5 mps 748 mmHg 95%
    15:00 -1°C° 0.6 mm 4 mps 748 mmHg 97%
    16:00 -1°C° 0.1 mm 4 mps 749 mmHg 97%
    17:00 0°C° 0.1 mm 3 mps 749 mmHg 97%
    18:00 +1°C° 0.1 mm 2 mps 749 mmHg 97%
    19:00 +1°C° 0 mm 2 mps 749 mmHg 96%
    20:00 -1°C° 0 mm 2 mps 750 mmHg 96%
    21:00 -1°C° 0 mm 2 mps 750 mmHg 95%
    22:00 +1°C° 0 mm 1 mps 750 mmHg 95%
    23:00 0°C° 0 mm 1 mps 750 mmHg 94%

    28 March, Thursday

    Time Temperature Precipitation Wind Pressure Humidity
    00:00 0°C° 0 mm 1 mps 750 mmHg 94%
    01:00 -1°C° 0 mm 1 mps 750 mmHg 93%
    02:00 -1°C° 0 mm 1 mps 750 mmHg 93%
    03:00 -2°C° 0 mm 1 mps 750 mmHg 93%
    04:00 -2°C° 0 mm 1 mps 750 mmHg 91%
    05:00 -2°C° 0 mm 1 mps 749 mmHg 90%
    06:00 -2°C° 0 mm 1 mps 749 mmHg 89%
    07:00 -1°C° 0 mm 1 mps 750 mmHg 86%
    08:00 0°C° 0 mm 1 mps 750 mmHg 83%
    09:00 -1°C° 0 mm 2 mps 750 mmHg 81%
    10:00 -1°C° 0 mm 2 mps 750 mmHg 79%
    11:00 +1°C° 0 mm 2 mps 750 mmHg 76%
    12:00 +1°C° 0 mm 2 mps 749 mmHg 74%
    13:00 +1°C° 0 mm 2 mps 749 mmHg 73%
    14:00 +2°C° 0 mm 2 mps 749 mmHg 73%
    15:00 +1°C° 0 mm 3 mps 749 mmHg 72%
    16:00 0°C° 0 mm 3 mps 749 mmHg 76%
    17:00 -1°C° 0 mm 3 mps 749 mmHg 81%
    18:00 -1°C° 0 mm 3 mps 749 mmHg 86%
    19:00 -2°C° 0 mm 3 mps 750 mmHg 87%
    20:00 -2°C° 0 mm 3 mps 750 mmHg 88%
    21:00 -2°C° 0 mm 3 mps 750 mmHg 89%
    22:00 -2°C° 0 mm 3 mps 750 mmHg 90%
    23:00 -2°C° 0 mm 3 mps 750 mmHg 91%

    29 March, Friday

    Time Temperature Precipitation Wind Pressure Humidity
    00:00 -2°C° 0 mm 3 mps 750 mmHg 92%
    01:00 -3°C° 0 mm 4 mps 750 mmHg 92%
    02:00 -3°C° 0 mm 4 mps 750 mmHg 91%
    03:00 -3°C° 0 mm 4 mps 751 mmHg 90%
    04:00 -3°C° 0 mm 4 mps 751 mmHg 88%
    05:00 -4°C° 0 mm 4 mps 751 mmHg 87%
    06:00 -4°C° 0 mm 4 mps 751 mmHg 85%
    07:00 -4°C° 0 mm 4 mps 751 mmHg 80%
    08:00 -3°C° 0 mm 4 mps 752 mmHg 76%
    09:00 -3°C° 0 mm 4 mps 752 mmHg 71%
    10:00 -2°C° 0 mm 4 mps 751 mmHg 69%
    11:00 -1°C° 0 mm 4 mps 751 mmHg 66%
    12:00 -1°C° 0 mm 4 mps 751 mmHg 64%
    13:00 -1°C° 0 mm 4 mps 751 mmHg 63%
    14:00 0°C° 0 mm 4 mps 750 mmHg 63%
    15:00 0°C° 0 mm 4 mps 750 mmHg 62%
    16:00 -1°C° 0 mm 4 mps 749 mmHg 68%
    17:00 -2°C° 0 mm 4 mps 749 mmHg 75%
    18:00 -2°C° 0 mm 4 mps 748 mmHg 81%
    19:00 -3°C° 0.1 mm 4 mps 748 mmHg 84%
    20:00 -3°C° 0.1 mm 4 mps 748 mmHg 87%
    21:00 -3°C° 0.1 mm 4 mps 748 mmHg 90%
    22:00 -3°C° 0 mm 4 mps 748 mmHg 90%
    23:00 -2°C° 0 mm 3 mps 748 mmHg 90%

    30 March, Saturday

    Time Temperature Precipitation Wind Pressure Humidity
    00:00 -2°C° 0 mm 3 mps 748 mmHg 91%
    01:00 -2°C° 0 mm 3 mps 748 mmHg 91%
    02:00 -2°C° 0 mm 2 mps 749 mmHg 92%
    03:00 -2°C° 0 mm 2 mps 749 mmHg 92%
    04:00 -2°C° 0 mm 2 mps 749 mmHg 92%
    05:00 -2°C° 0 mm 2 mps 750 mmHg 92%
    06:00 -2°C° 0 mm 2 mps 750 mmHg 92%
    07:00 -2°C° 0 mm 2 mps 751 mmHg 89%
    08:00 -1°C° 0 mm 2 mps 751 mmHg 87%
    09:00 -1°C° 0 mm 2 mps 752 mmHg 84%
    10:00 +1°C° 0 mm 2 mps 752 mmHg 83%
    11:00 +1°C° 0 mm 2 mps 752 mmHg 81%
    12:00 +2°C° 0 mm 2 mps 752 mmHg 79%
    13:00 +2°C° 0 mm 2 mps 752 mmHg 79%
    14:00 +2°C° 0 mm 2 mps 753 mmHg 78%
    15:00 +2°C° 0 mm 2 mps 753 mmHg 78%
    16:00 +2°C° 0 mm 2 mps 753 mmHg 81%
    17:00 +1°C° 0 mm 2 mps 753 mmHg 84%
    18:00 -1°C° 0 mm 2 mps 753 mmHg 87%
    19:00 -1°C° 0 mm 2 mps 753 mmHg 89%
    20:00 -2°C° 0 mm 2 mps 753 mmHg 91%
    21:00 -2°C° 0 mm 2 mps 753 mmHg 92%
    22:00 -2°C° 0 mm 2 mps 753 mmHg 93%
    23:00 -2°C° 0 mm 2 mps 754 mmHg 93%
    Show more